owner,sensor,date,latitude,longitude,sea_surface_height_above_sea_level,qcFlag 
TCOON,ioos:station:TCOON:068:1,2014-04-01T00:00:00Z,27.2970,-97.4049,4.171,1111122 
TCOON,ioos:station:TCOON:068:1,2014-04-01T01:00:00Z,27.2970,-97.4049,4.184,1111122 
TCOON,ioos:station:TCOON:068:1,2014-04-01T02:00:00Z,27.2970,-97.4049,4.21,1111122 
TCOON,ioos:station:TCOON:068:1,2014-04-01T03:00:00Z,27.2970,-97.4049,4.225,1111122 
TCOON,ioos:station:TCOON:068:1,2014-04-01T04:00:00Z,27.2970,-97.4049,4.235,1111122 
TCOON,ioos:station:TCOON:068:1,2014-04-01T05:00:00Z,27.2970,-97.4049,4.238,1111122 
TCOON,ioos:station:TCOON:068:1,2014-04-01T06:12:00Z,27.2970,-97.4049,4.231,1111122 
TCOON,ioos:station:TCOON:068:1,2014-04-01T07:00:00Z,27.2970,-97.4049,4.229,1111122 
TCOON,ioos:station:TCOON:068:1,2014-04-01T08:00:00Z,27.2970,-97.4049,4.224,1111122 
TCOON,ioos:station:TCOON:068:1,2014-04-01T09:00:00Z,27.2970,-97.4049,4.223,1111122 
TCOON,ioos:station:TCOON:068:1,2014-04-01T10:00:00Z,27.2970,-97.4049,4.229,1111122 
TCOON,ioos:station:TCOON:068:1,2014-04-01T11:00:00Z,27.2970,-97.4049,4.236,1111122 
TCOON,ioos:station:TCOON:068:1,2014-04-01T12:00:00Z,27.2970,-97.4049,4.226,1111122 
TCOON,ioos:station:TCOON:068:1,2014-04-01T13:00:00Z,27.2970,-97.4049,4.221,1111122 
TCOON,ioos:station:TCOON:068:1,2014-04-01T14:00:00Z,27.2970,-97.4049,4.223,1111122 
TCOON,ioos:station:TCOON:068:1,2014-04-01T15:00:00Z,27.2970,-97.4049,4.219,1111122 
TCOON,ioos:station:TCOON:068:1,2014-04-01T16:00:00Z,27.2970,-97.4049,4.221,1111122 
TCOON,ioos:station:TCOON:068:1,2014-04-01T17:00:00Z,27.2970,-97.4049,4.218,1111122 
TCOON,ioos:station:TCOON:068:1,2014-04-01T18:00:00Z,27.2970,-97.4049,4.214,1111122 
TCOON,ioos:station:TCOON:068:1,2014-04-01T19:00:00Z,27.2970,-97.4049,4.202,1111122 
TCOON,ioos:station:TCOON:068:1,2014-04-01T20:00:00Z,27.2970,-97.4049,4.202,1111122 
TCOON,ioos:station:TCOON:068:1,2014-04-01T21:00:00Z,27.2970,-97.4049,4.208,1111122 
TCOON,ioos:station:TCOON:068:1,2014-04-01T22:00:00Z,27.2970,-97.4049,4.192,1111122 
TCOON,ioos:station:TCOON:068:1,2014-04-01T23:00:00Z,27.2970,-97.4049,4.187,1111122 
TCOON,ioos:station:TCOON:068:1,2014-04-02T00:00:00Z,27.2970,-97.4049,4.198,1111122 
TCOON,ioos:station:TCOON:068:1,2014-04-02T01:00:00Z,27.2970,-97.4049,4.203,1111122 
TCOON,ioos:station:TCOON:068:1,2014-04-02T02:00:00Z,27.2970,-97.4049,4.202,1111122 
TCOON,ioos:station:TCOON:068:1,2014-04-02T03:00:00Z,27.2970,-97.4049,4.21,1111122 
TCOON,ioos:station:TCOON:068:1,2014-04-02T04:00:00Z,27.2970,-97.4049,4.215,1111122 
TCOON,ioos:station:TCOON:068:1,2014-04-02T05:00:00Z,27.2970,-97.4049,4.213,1111122 
TCOON,ioos:station:TCOON:068:1,2014-04-02T06:12:00Z,27.2970,-97.4049,4.224,1111122 
TCOON,ioos:station:TCOON:068:1,2014-04-02T07:00:00Z,27.2970,-97.4049,4.229,1111122 
TCOON,ioos:station:TCOON:068:1,2014-04-02T08:00:00Z,27.2970,-97.4049,4.238,1111122 
TCOON,ioos:station:TCOON:068:1,2014-04-02T09:00:00Z,27.2970,-97.4049,4.237,1111122 
TCOON,ioos:station:TCOON:068:1,2014-04-02T10:00:00Z,27.2970,-97.4049,4.235,1111122 
TCOON,ioos:station:TCOON:068:1,2014-04-02T11:00:00Z,27.2970,-97.4049,4.227,1111122 
TCOON,ioos:station:TCOON:068:1,2014-04-02T12:00:00Z,27.2970,-97.4049,4.217,1111122 
TCOON,ioos:station:TCOON:068:1,2014-04-02T13:00:00Z,27.2970,-97.4049,4.206,1111122 
TCOON,ioos:station:TCOON:068:1,2014-04-02T14:00:00Z,27.2970,-97.4049,4.211,1111122 
TCOON,ioos:station:TCOON:068:1,2014-04-02T15:00:00Z,27.2970,-97.4049,4.221,1111122 
TCOON,ioos:station:TCOON:068:1,2014-04-02T16:00:00Z,27.2970,-97.4049,4.212,1111122 
TCOON,ioos:station:TCOON:068:1,2014-04-02T17:00:00Z,27.2970,-97.4049,4.205,1111122 
TCOON,ioos:station:TCOON:068:1,2014-04-02T18:00:00Z,27.2970,-97.4049,4.195,1111122 
TCOON,ioos:station:TCOON:068:1,2014-04-02T19:00:00Z,27.2970,-97.4049,4.193,1111122 
TCOON,ioos:station:TCOON:068:1,2014-04-02T20:00:00Z,27.2970,-97.4049,4.191,1111122 
TCOON,ioos:station:TCOON:068:1,2014-04-02T21:00:00Z,27.2970,-97.4049,4.17,1111122 
TCOON,ioos:station:TCOON:068:1,2014-04-02T22:00:00Z,27.2970,-97.4049,4.159,1111122 
TCOON,ioos:station:TCOON:068:1,2014-04-02T23:00:00Z,27.2970,-97.4049,4.16,1111122 
TCOON,ioos:station:TCOON:068:1,2014-04-03T00:00:00Z,27.2970,-97.4049,4.152,1111122 
TCOON,ioos:station:TCOON:068:1,2014-04-03T01:00:00Z,27.2970,-97.4049,4.151,1111122 
TCOON,ioos:station:TCOON:068:1,2014-04-03T02:00:00Z,27.2970,-97.4049,4.169,1111122 
TCOON,ioos:station:TCOON:068:1,2014-04-03T03:00:00Z,27.2970,-97.4049,4.188,1111122 
TCOON,ioos:station:TCOON:068:1,2014-04-03T04:00:00Z,27.2970,-97.4049,4.176,1111122 
TCOON,ioos:station:TCOON:068:1,2014-04-03T05:00:00Z,27.2970,-97.4049,4.173,1111122 
TCOON,ioos:station:TCOON:068:1,2014-04-03T06:06:00Z,27.2970,-97.4049,4.203,1111122 
TCOON,ioos:station:TCOON:068:1,2014-04-03T07:00:00Z,27.2970,-97.4049,4.203,1111122 
TCOON,ioos:station:TCOON:068:1,2014-04-03T08:00:00Z,27.2970,-97.4049,4.191,1111122 
TCOON,ioos:station:TCOON:068:1,2014-04-03T09:00:00Z,27.2970,-97.4049,4.181,1111122 
TCOON,ioos:station:TCOON:068:1,2014-04-03T10:00:00Z,27.2970,-97.4049,4.175,1111122 
TCOON,ioos:station:TCOON:068:1,2014-04-03T11:00:00Z,27.2970,-97.4049,4.167,1111122 
TCOON,ioos:station:TCOON:068:1,2014-04-03T12:00:00Z,27.2970,-97.4049,4.17,1111122 
TCOON,ioos:station:TCOON:068:1,2014-04-03T13:00:00Z,27.2970,-97.4049,4.16,1111122 
TCOON,ioos:station:TCOON:068:1,2014-04-03T14:00:00Z,27.2970,-97.4049,4.162,1111122 
TCOON,ioos:station:TCOON:068:1,2014-04-03T15:00:00Z,27.2970,-97.4049,4.19,1111122 
TCOON,ioos:station:TCOON:068:1,2014-04-03T16:00:00Z,27.2970,-97.4049,4.18,1111122 
TCOON,ioos:station:TCOON:068:1,2014-04-03T17:00:00Z,27.2970,-97.4049,4.174,1111122 
TCOON,ioos:station:TCOON:068:1,2014-04-03T18:00:00Z,27.2970,-97.4049,4.172,1111122 
TCOON,ioos:station:TCOON:068:1,2014-04-03T19:00:00Z,27.2970,-97.4049,4.17,1111122 
TCOON,ioos:station:TCOON:068:1,2014-04-03T20:00:00Z,27.2970,-97.4049,4.171,1111122 
TCOON,ioos:station:TCOON:068:1,2014-04-03T21:00:00Z,27.2970,-97.4049,4.171,1111122 
TCOON,ioos:station:TCOON:068:1,2014-04-03T22:00:00Z,27.2970,-97.4049,4.163,1111122 
TCOON,ioos:station:TCOON:068:1,2014-04-03T23:00:00Z,27.2970,-97.4049,4.164,1111122 
TCOON,ioos:station:TCOON:068:1,2014-04-04T00:00:00Z,27.2970,-97.4049,4.161,1111122 
TCOON,ioos:station:TCOON:068:1,2014-04-04T01:00:00Z,27.2970,-97.4049,4.152,1111122 
TCOON,ioos:station:TCOON:068:1,2014-04-04T02:00:00Z,27.2970,-97.4049,4.157,1111122 
TCOON,ioos:station:TCOON:068:1,2014-04-04T03:00:00Z,27.2970,-97.4049,4.159,1111122 
TCOON,ioos:station:TCOON:068:1,2014-04-04T04:00:00Z,27.2970,-97.4049,4.17,1111122 
TCOON,ioos:station:TCOON:068:1,2014-04-04T05:00:00Z,27.2970,-97.4049,4.175,1111122 
TCOON,ioos:station:TCOON:068:1,2014-04-04T06:18:00Z,27.2970,-97.4049,4.186,1111122 
TCOON,ioos:station:TCOON:068:1,2014-04-04T07:00:00Z,27.2970,-97.4049,4.188,1111122 
TCOON,ioos:station:TCOON:068:1,2014-04-04T08:00:00Z,27.2970,-97.4049,4.186,1111122 
TCOON,ioos:station:TCOON:068:1,2014-04-04T09:00:00Z,27.2970,-97.4049,4.183,1111122 
TCOON,ioos:station:TCOON:068:1,2014-04-04T10:00:00Z,27.2970,-97.4049,4.211,1111122 
TCOON,ioos:station:TCOON:068:1,2014-04-04T11:00:00Z,27.2970,-97.4049,4.219,1111122 
TCOON,ioos:station:TCOON:068:1,2014-04-04T12:00:00Z,27.2970,-97.4049,4.199,1111122 
TCOON,ioos:station:TCOON:068:1,2014-04-04T13:00:00Z,27.2970,-97.4049,4.182,1111122 
TCOON,ioos:station:TCOON:068:1,2014-04-04T14:00:00Z,27.2970,-97.4049,4.178,1111122 
TCOON,ioos:station:TCOON:068:1,2014-04-04T15:00:00Z,27.2970,-97.4049,4.146,1111122 
TCOON,ioos:station:TCOON:068:1,2014-04-04T16:00:00Z,27.2970,-97.4049,4.163,1111122 
TCOON,ioos:station:TCOON:068:1,2014-04-04T17:00:00Z,27.2970,-97.4049,4.173,1111122 
TCOON,ioos:station:TCOON:068:1,2014-04-04T18:00:00Z,27.2970,-97.4049,4.188,1111122 
TCOON,ioos:station:TCOON:068:1,2014-04-04T19:00:00Z,27.2970,-97.4049,4.205,1111122 
TCOON,ioos:station:TCOON:068:1,2014-04-04T20:00:00Z,27.2970,-97.4049,4.216,1111122 
TCOON,ioos:station:TCOON:068:1,2014-04-04T21:00:00Z,27.2970,-97.4049,4.192,1111122 
TCOON,ioos:station:TCOON:068:1,2014-04-04T22:00:00Z,27.2970,-97.4049,4.175,1111122 
TCOON,ioos:station:TCOON:068:1,2014-04-04T23:00:00Z,27.2970,-97.4049,4.178,1111122 
TCOON,ioos:station:TCOON:068:1,2014-04-05T00:00:00Z,27.2970,-97.4049,4.187,1111122 
TCOON,ioos:station:TCOON:068:1,2014-04-05T01:00:00Z,27.2970,-97.4049,4.195,1111122 
TCOON,ioos:station:TCOON:068:1,2014-04-05T02:00:00Z,27.2970,-97.4049,4.221,1111122 
TCOON,ioos:station:TCOON:068:1,2014-04-05T03:00:00Z,27.2970,-97.4049,4.228,1111122 
TCOON,ioos:station:TCOON:068:1,2014-04-05T04:00:00Z,27.2970,-97.4049,4.239,1111122 
TCOON,ioos:station:TCOON:068:1,2014-04-05T05:00:00Z,27.2970,-97.4049,4.241,1111122 
TCOON,ioos:station:TCOON:068:1,2014-04-05T06:00:00Z,27.2970,-97.4049,4.231,1111122 
TCOON,ioos:station:TCOON:068:1,2014-04-05T07:00:00Z,27.2970,-97.4049,4.222,1111122 
TCOON,ioos:station:TCOON:068:1,2014-04-05T08:00:00Z,27.2970,-97.4049,4.229,1111122 
TCOON,ioos:station:TCOON:068:1,2014-04-05T09:00:00Z,27.2970,-97.4049,4.237,1111122 
TCOON,ioos:station:TCOON:068:1,2014-04-05T10:00:00Z,27.2970,-97.4049,4.237,1111122 
TCOON,ioos:station:TCOON:068:1,2014-04-05T11:00:00Z,27.2970,-97.4049,4.244,1111122 
TCOON,ioos:station:TCOON:068:1,2014-04-05T12:00:00Z,27.2970,-97.4049,4.236,1111122 
TCOON,ioos:station:TCOON:068:1,2014-04-05T13:00:00Z,27.2970,-97.4049,4.221,1111122 
TCOON,ioos:station:TCOON:068:1,2014-04-05T14:00:00Z,27.2970,-97.4049,4.21,1111122 
TCOON,ioos:station:TCOON:068:1,2014-04-05T15:00:00Z,27.2970,-97.4049,4.215,1111122 
TCOON,ioos:station:TCOON:068:1,2014-04-05T16:00:00Z,27.2970,-97.4049,4.222,1111122 
TCOON,ioos:station:TCOON:068:1,2014-04-05T17:00:00Z,27.2970,-97.4049,4.241,1111122 
TCOON,ioos:station:TCOON:068:1,2014-04-05T18:00:00Z,27.2970,-97.4049,4.258,1111122 
TCOON,ioos:station:TCOON:068:1,2014-04-05T19:00:00Z,27.2970,-97.4049,4.266,1111122 
TCOON,ioos:station:TCOON:068:1,2014-04-05T20:00:00Z,27.2970,-97.4049,4.267,1111122 
TCOON,ioos:station:TCOON:068:1,2014-04-05T21:00:00Z,27.2970,-97.4049,4.255,1111122 
TCOON,ioos:station:TCOON:068:1,2014-04-05T22:00:00Z,27.2970,-97.4049,4.254,1111122 
TCOON,ioos:station:TCOON:068:1,2014-04-05T23:00:00Z,27.2970,-97.4049,4.259,1111122 
TCOON,ioos:station:TCOON:068:1,2014-04-06T00:00:00Z,27.2970,-97.4049,4.251,1111122 
TCOON,ioos:station:TCOON:068:1,2014-04-06T01:00:00Z,27.2970,-97.4049,4.262,1111122 
TCOON,ioos:station:TCOON:068:1,2014-04-06T02:00:00Z,27.2970,-97.4049,4.26,1111122 
TCOON,ioos:station:TCOON:068:1,2014-04-06T03:00:00Z,27.2970,-97.4049,4.262,1111122 
TCOON,ioos:station:TCOON:068:1,2014-04-06T04:00:00Z,27.2970,-97.4049,4.275,1111122 
TCOON,ioos:station:TCOON:068:1,2014-04-06T05:00:00Z,27.2970,-97.4049,4.281,1111122 
TCOON,ioos:station:TCOON:068:1,2014-04-06T06:06:00Z,27.2970,-97.4049,4.291,1111122 
TCOON,ioos:station:TCOON:068:1,2014-04-06T07:00:00Z,27.2970,-97.4049,4.302,1111122 
TCOON,ioos:station:TCOON:068:1,2014-04-06T08:00:00Z,27.2970,-97.4049,4.303,1111122 
TCOON,ioos:station:TCOON:068:1,2014-04-06T10:00:00Z,27.2970,-97.4049,4.31,1111122 
TCOON,ioos:station:TCOON:068:1,2014-04-06T12:00:00Z,27.2970,-97.4049,4.32,1111122 
TCOON,ioos:station:TCOON:068:1,2014-04-06T13:30:00Z,27.2970,-97.4049,4.315,1111122 
TCOON,ioos:station:TCOON:068:1,2014-04-06T14:00:00Z,27.2970,-97.4049,4.313,1111122 
TCOON,ioos:station:TCOON:068:1,2014-04-06T15:00:00Z,27.2970,-97.4049,4.311,1111122 
TCOON,ioos:station:TCOON:068:1,2014-04-06T16:00:00Z,27.2970,-97.4049,4.31,1111122 
TCOON,ioos:station:TCOON:068:1,2014-04-06T17:00:00Z,27.2970,-97.4049,4.309,1111122 
TCOON,ioos:station:TCOON:068:1,2014-04-06T18:00:00Z,27.2970,-97.4049,4.306,1111122 
TCOON,ioos:station:TCOON:068:1,2014-04-06T19:00:00Z,27.2970,-97.4049,4.308,1111122 
TCOON,ioos:station:TCOON:068:1,2014-04-06T20:00:00Z,27.2970,-97.4049,4.307,1111122 
TCOON,ioos:station:TCOON:068:1,2014-04-06T21:00:00Z,27.2970,-97.4049,4.313,1111122 
TCOON,ioos:station:TCOON:068:1,2014-04-06T22:00:00Z,27.2970,-97.4049,4.305,1111122 
TCOON,ioos:station:TCOON:068:1,2014-04-06T23:00:00Z,27.2970,-97.4049,4.317,1111122 
TCOON,ioos:station:TCOON:068:1,2014-04-07T00:00:00Z,27.2970,-97.4049,4.314,1111122 
TCOON,ioos:station:TCOON:068:1,2014-04-07T01:00:00Z,27.2970,-97.4049,4.31,1111122 
TCOON,ioos:station:TCOON:068:1,2014-04-07T02:00:00Z,27.2970,-97.4049,4.305,1111122 
TCOON,ioos:station:TCOON:068:1,2014-04-07T03:00:00Z,27.2970,-97.4049,4.31,1111122 
TCOON,ioos:station:TCOON:068:1,2014-04-07T04:00:00Z,27.2970,-97.4049,4.297,1111122 
TCOON,ioos:station:TCOON:068:1,2014-04-07T05:00:00Z,27.2970,-97.4049,4.306,1111122 
TCOON,ioos:station:TCOON:068:1,2014-04-07T06:00:00Z,27.2970,-97.4049,4.315,1111122 
TCOON,ioos:station:TCOON:068:1,2014-04-07T07:00:00Z,27.2970,-97.4049,4.315,1111122 
TCOON,ioos:station:TCOON:068:1,2014-04-07T08:00:00Z,27.2970,-97.4049,4.321,1111122 
TCOON,ioos:station:TCOON:068:1,2014-04-07T09:00:00Z,27.2970,-97.4049,4.332,1111122 
TCOON,ioos:station:TCOON:068:1,2014-04-07T10:00:00Z,27.2970,-97.4049,4.332,1111122 
TCOON,ioos:station:TCOON:068:1,2014-04-07T11:00:00Z,27.2970,-97.4049,4.33,1111122 
TCOON,ioos:station:TCOON:068:1,2014-04-07T12:00:00Z,27.2970,-97.4049,4.334,1111122 
TCOON,ioos:station:TCOON:068:1,2014-04-07T13:00:00Z,27.2970,-97.4049,4.337,1111122 
TCOON,ioos:station:TCOON:068:1,2014-04-07T14:00:00Z,27.2970,-97.4049,4.332,1111122 
TCOON,ioos:station:TCOON:068:1,2014-04-07T15:00:00Z,27.2970,-97.4049,4.33,1111122 
TCOON,ioos:station:TCOON:068:1,2014-04-07T16:00:00Z,27.2970,-97.4049,4.326,1111122 
TCOON,ioos:station:TCOON:068:1,2014-04-07T17:00:00Z,27.2970,-97.4049,4.328,1111122 
TCOON,ioos:station:TCOON:068:1,2014-04-07T18:00:00Z,27.2970,-97.4049,4.326,1111122 
TCOON,ioos:station:TCOON:068:1,2014-04-07T19:00:00Z,27.2970,-97.4049,4.299,1111122 
TCOON,ioos:station:TCOON:068:1,2014-04-07T20:00:00Z,27.2970,-97.4049,4.287,1111122 
TCOON,ioos:station:TCOON:068:1,2014-04-07T21:00:00Z,27.2970,-97.4049,4.298,1111122 
TCOON,ioos:station:TCOON:068:1,2014-04-07T22:00:00Z,27.2970,-97.4049,4.306,1111122 
TCOON,ioos:station:TCOON:068:1,2014-04-07T23:00:00Z,27.2970,-97.4049,4.315,1111122 
TCOON,ioos:station:TCOON:068:1,2014-04-08T00:00:00Z,27.2970,-97.4049,4.316,1111122 
TCOON,ioos:station:TCOON:068:1,2014-04-08T01:00:00Z,27.2970,-97.4049,4.316,1111122 
TCOON,ioos:station:TCOON:068:1,2014-04-08T02:00:00Z,27.2970,-97.4049,4.325,1111122 
TCOON,ioos:station:TCOON:068:1,2014-04-08T03:00:00Z,27.2970,-97.4049,4.344,1111122 
TCOON,ioos:station:TCOON:068:1,2014-04-08T04:00:00Z,27.2970,-97.4049,4.346,1111122 
TCOON,ioos:station:TCOON:068:1,2014-04-08T05:00:00Z,27.2970,-97.4049,4.345,1111122 
TCOON,ioos:station:TCOON:068:1,2014-04-08T06:06:00Z,27.2970,-97.4049,4.352,1111122 
TCOON,ioos:station:TCOON:068:1,2014-04-08T07:00:00Z,27.2970,-97.4049,4.353,1111122 
TCOON,ioos:station:TCOON:068:1,2014-04-08T08:00:00Z,27.2970,-97.4049,4.351,1111122 
TCOON,ioos:station:TCOON:068:1,2014-04-08T09:00:00Z,27.2970,-97.4049,4.336,1111122 
TCOON,ioos:station:TCOON:068:1,2014-04-08T10:00:00Z,27.2970,-97.4049,4.326,1111122 
TCOON,ioos:station:TCOON:068:1,2014-04-08T11:00:00Z,27.2970,-97.4049,4.325,1111122 
TCOON,ioos:station:TCOON:068:1,2014-04-08T12:00:00Z,27.2970,-97.4049,4.324,1111122 
TCOON,ioos:station:TCOON:068:1,2014-04-08T13:00:00Z,27.2970,-97.4049,4.326,1111122 
TCOON,ioos:station:TCOON:068:1,2014-04-08T14:00:00Z,27.2970,-97.4049,4.323,1111122 
TCOON,ioos:station:TCOON:068:1,2014-04-08T15:00:00Z,27.2970,-97.4049,4.322,1111122 
TCOON,ioos:station:TCOON:068:1,2014-04-08T16:00:00Z,27.2970,-97.4049,4.325,1111122 
TCOON,ioos:station:TCOON:068:1,2014-04-08T17:00:00Z,27.2970,-97.4049,4.325,1111122 
TCOON,ioos:station:TCOON:068:1,2014-04-08T18:00:00Z,27.2970,-97.4049,4.333,1111122 
TCOON,ioos:station:TCOON:068:1,2014-04-08T19:00:00Z,27.2970,-97.4049,4.337,1111122 
TCOON,ioos:station:TCOON:068:1,2014-04-08T20:00:00Z,27.2970,-97.4049,4.328,1111122 
TCOON,ioos:station:TCOON:068:1,2014-04-08T21:00:00Z,27.2970,-97.4049,4.317,1111122 
TCOON,ioos:station:TCOON:068:1,2014-04-08T22:00:00Z,27.2970,-97.4049,4.301,1111122 
TCOON,ioos:station:TCOON:068:1,2014-04-08T23:00:00Z,27.2970,-97.4049,4.316,1111122 
TCOON,ioos:station:TCOON:068:1,2014-04-09T00:00:00Z,27.2970,-97.4049,4.299,1111122 
TCOON,ioos:station:TCOON:068:1,2014-04-09T01:00:00Z,27.2970,-97.4049,4.288,1111122 
TCOON,ioos:station:TCOON:068:1,2014-04-09T02:00:00Z,27.2970,-97.4049,4.268,1111122 
TCOON,ioos:station:TCOON:068:1,2014-04-09T03:00:00Z,27.2970,-97.4049,4.255,1111122 
TCOON,ioos:station:TCOON:068:1,2014-04-09T04:00:00Z,27.2970,-97.4049,4.256,1111122 
TCOON,ioos:station:TCOON:068:1,2014-04-09T05:00:00Z,27.2970,-97.4049,4.265,1111122 
TCOON,ioos:station:TCOON:068:1,2014-04-09T06:06:00Z,27.2970,-97.4049,4.258,1111122 
TCOON,ioos:station:TCOON:068:1,2014-04-09T07:00:00Z,27.2970,-97.4049,4.254,1111122 
TCOON,ioos:station:TCOON:068:1,2014-04-09T08:00:00Z,27.2970,-97.4049,4.261,1111122 
TCOON,ioos:station:TCOON:068:1,2014-04-09T09:00:00Z,27.2970,-97.4049,4.262,1111122 
TCOON,ioos:station:TCOON:068:1,2014-04-09T10:00:00Z,27.2970,-97.4049,4.276,1111122 
TCOON,ioos:station:TCOON:068:1,2014-04-09T11:00:00Z,27.2970,-97.4049,4.27,1111122 
TCOON,ioos:station:TCOON:068:1,2014-04-09T12:00:00Z,27.2970,-97.4049,4.264,1111122 
TCOON,ioos:station:TCOON:068:1,2014-04-09T13:00:00Z,27.2970,-97.4049,4.26,1111122 
TCOON,ioos:station:TCOON:068:1,2014-04-09T14:00:00Z,27.2970,-97.4049,4.256,1111122 
TCOON,ioos:station:TCOON:068:1,2014-04-09T15:00:00Z,27.2970,-97.4049,4.25,1111122 
TCOON,ioos:station:TCOON:068:1,2014-04-09T16:00:00Z,27.2970,-97.4049,4.244,1111122 
TCOON,ioos:station:TCOON:068:1,2014-04-09T17:00:00Z,27.2970,-97.4049,4.227,1111122 
TCOON,ioos:station:TCOON:068:1,2014-04-09T18:00:00Z,27.2970,-97.4049,4.215,1111122 
TCOON,ioos:station:TCOON:068:1,2014-04-09T19:00:00Z,27.2970,-97.4049,4.206,1111122 
TCOON,ioos:station:TCOON:068:1,2014-04-09T20:00:00Z,27.2970,-97.4049,4.197,1111122 
TCOON,ioos:station:TCOON:068:1,2014-04-09T21:00:00Z,27.2970,-97.4049,4.184,1111122 
TCOON,ioos:station:TCOON:068:1,2014-04-09T22:00:00Z,27.2970,-97.4049,4.178,1111122 
TCOON,ioos:station:TCOON:068:1,2014-04-09T23:42:00Z,27.2970,-97.4049,4.168,1111122 
TCOON,ioos:station:TCOON:068:1,2014-04-10T00:00:00Z,27.2970,-97.4049,4.167,1111122 
TCOON,ioos:station:TCOON:068:1,2014-04-10T02:00:00Z,27.2970,-97.4049,4.18,1111122 
TCOON,ioos:station:TCOON:068:1,2014-04-10T03:00:00Z,27.2970,-97.4049,4.193,1111122 
TCOON,ioos:station:TCOON:068:1,2014-04-10T04:00:00Z,27.2970,-97.4049,4.198,1111122 
TCOON,ioos:station:TCOON:068:1,2014-04-10T05:00:00Z,27.2970,-97.4049,4.2,1111122 
TCOON,ioos:station:TCOON:068:1,2014-04-10T06:12:00Z,27.2970,-97.4049,4.204,1111122 
TCOON,ioos:station:TCOON:068:1,2014-04-10T07:00:00Z,27.2970,-97.4049,4.204,1111122 
TCOON,ioos:station:TCOON:068:1,2014-04-10T08:00:00Z,27.2970,-97.4049,4.201,1111122 
TCOON,ioos:station:TCOON:068:1,2014-04-10T09:00:00Z,27.2970,-97.4049,4.196,1111122 
TCOON,ioos:station:TCOON:068:1,2014-04-10T10:00:00Z,27.2970,-97.4049,4.196,1111122 
TCOON,ioos:station:TCOON:068:1,2014-04-10T11:00:00Z,27.2970,-97.4049,4.194,1111122 
TCOON,ioos:station:TCOON:068:1,2014-04-10T12:00:00Z,27.2970,-97.4049,4.189,1111122 
TCOON,ioos:station:TCOON:068:1,2014-04-10T13:00:00Z,27.2970,-97.4049,4.184,1111122 
TCOON,ioos:station:TCOON:068:1,2014-04-10T14:00:00Z,27.2970,-97.4049,4.191,1111122 
TCOON,ioos:station:TCOON:068:1,2014-04-10T15:00:00Z,27.2970,-97.4049,4.192,1111122 
TCOON,ioos:station:TCOON:068:1,2014-04-10T16:00:00Z,27.2970,-97.4049,4.171,1111122 
TCOON,ioos:station:TCOON:068:1,2014-04-10T17:00:00Z,27.2970,-97.4049,4.144,1111122 
TCOON,ioos:station:TCOON:068:1,2014-04-10T18:00:00Z,27.2970,-97.4049,4.137,1111122 
TCOON,ioos:station:TCOON:068:1,2014-04-10T19:00:00Z,27.2970,-97.4049,4.128,1111122 
TCOON,ioos:station:TCOON:068:1,2014-04-10T20:00:00Z,27.2970,-97.4049,4.1,1111122 
TCOON,ioos:station:TCOON:068:1,2014-04-10T21:00:00Z,27.2970,-97.4049,4.074,1111122 
TCOON,ioos:station:TCOON:068:1,2014-04-10T22:00:00Z,27.2970,-97.4049,4.054,1111122 
TCOON,ioos:station:TCOON:068:1,2014-04-10T23:00:00Z,27.2970,-97.4049,4.05,1111122 
TCOON,ioos:station:TCOON:068:1,2014-04-11T00:00:00Z,27.2970,-97.4049,4.043,1111122 
TCOON,ioos:station:TCOON:068:1,2014-04-11T01:00:00Z,27.2970,-97.4049,4.047,1111122 
TCOON,ioos:station:TCOON:068:1,2014-04-11T02:00:00Z,27.2970,-97.4049,4.071,1111122 
TCOON,ioos:station:TCOON:068:1,2014-04-11T03:00:00Z,27.2970,-97.4049,4.099,1111122 
TCOON,ioos:station:TCOON:068:1,2014-04-11T04:00:00Z,27.2970,-97.4049,4.115,1111122 
TCOON,ioos:station:TCOON:068:1,2014-04-11T05:00:00Z,27.2970,-97.4049,4.13,1111122 
TCOON,ioos:station:TCOON:068:1,2014-04-11T06:06:00Z,27.2970,-97.4049,4.131,1111122 
TCOON,ioos:station:TCOON:068:1,2014-04-11T07:00:00Z,27.2970,-97.4049,4.132,1111122 
TCOON,ioos:station:TCOON:068:1,2014-04-11T08:00:00Z,27.2970,-97.4049,4.133,1111122 
TCOON,ioos:station:TCOON:068:1,2014-04-11T09:00:00Z,27.2970,-97.4049,4.137,1111122 
TCOON,ioos:station:TCOON:068:1,2014-04-11T10:00:00Z,27.2970,-97.4049,4.13,1111122 
TCOON,ioos:station:TCOON:068:1,2014-04-11T11:00:00Z,27.2970,-97.4049,4.12,1111122 
TCOON,ioos:station:TCOON:068:1,2014-04-11T12:00:00Z,27.2970,-97.4049,4.117,1111122 
TCOON,ioos:station:TCOON:068:1,2014-04-11T13:00:00Z,27.2970,-97.4049,4.118,1111122 
TCOON,ioos:station:TCOON:068:1,2014-04-11T14:00:00Z,27.2970,-97.4049,4.126,1111122 
TCOON,ioos:station:TCOON:068:1,2014-04-11T15:00:00Z,27.2970,-97.4049,4.129,1111122 
TCOON,ioos:station:TCOON:068:1,2014-04-11T16:00:00Z,27.2970,-97.4049,4.119,1111122 
TCOON,ioos:station:TCOON:068:1,2014-04-11T17:00:00Z,27.2970,-97.4049,4.098,1111122 
TCOON,ioos:station:TCOON:068:1,2014-04-11T18:00:00Z,27.2970,-97.4049,4.096,1111122 
TCOON,ioos:station:TCOON:068:1,2014-04-11T19:00:00Z,27.2970,-97.4049,4.089,1111122 
TCOON,ioos:station:TCOON:068:1,2014-04-11T20:00:00Z,27.2970,-97.4049,4.066,1111122 
TCOON,ioos:station:TCOON:068:1,2014-04-11T21:00:00Z,27.2970,-97.4049,4.043,1111122 
TCOON,ioos:station:TCOON:068:1,2014-04-11T22:00:00Z,27.2970,-97.4049,4.035,1111122 
TCOON,ioos:station:TCOON:068:1,2014-04-11T23:00:00Z,27.2970,-97.4049,4.026,1111122 
TCOON,ioos:station:TCOON:068:1,2014-04-12T00:00:00Z,27.2970,-97.4049,4.024,1111122 
TCOON,ioos:station:TCOON:068:1,2014-04-12T01:00:00Z,27.2970,-97.4049,4.036,1111122 
TCOON,ioos:station:TCOON:068:1,2014-04-12T02:00:00Z,27.2970,-97.4049,4.061,1111122 
TCOON,ioos:station:TCOON:068:1,2014-04-12T03:00:00Z,27.2970,-97.4049,4.093,1111122 
TCOON,ioos:station:TCOON:068:1,2014-04-12T04:00:00Z,27.2970,-97.4049,4.107,1111122 
TCOON,ioos:station:TCOON:068:1,2014-04-12T05:00:00Z,27.2970,-97.4049,4.106,1111122 
TCOON,ioos:station:TCOON:068:1,2014-04-12T06:00:00Z,27.2970,-97.4049,4.108,1111122 
TCOON,ioos:station:TCOON:068:1,2014-04-12T07:06:00Z,27.2970,-97.4049,4.099,1111122 
TCOON,ioos:station:TCOON:068:1,2014-04-12T08:18:00Z,27.2970,-97.4049,4.096,1111122 
TCOON,ioos:station:TCOON:068:1,2014-04-12T09:00:00Z,27.2970,-97.4049,4.093,1111122 
TCOON,ioos:station:TCOON:068:1,2014-04-12T10:00:00Z,27.2970,-97.4049,4.096,1111122 
TCOON,ioos:station:TCOON:068:1,2014-04-12T11:00:00Z,27.2970,-97.4049,4.097,1111122 
TCOON,ioos:station:TCOON:068:1,2014-04-12T14:00:00Z,27.2970,-97.4049,4.097,1111122 
TCOON,ioos:station:TCOON:068:1,2014-04-12T15:00:00Z,27.2970,-97.4049,4.098,1111122 
TCOON,ioos:station:TCOON:068:1,2014-04-12T16:00:00Z,27.2970,-97.4049,4.097,1111122 
TCOON,ioos:station:TCOON:068:1,2014-04-12T17:00:00Z,27.2970,-97.4049,4.074,1111122 
TCOON,ioos:station:TCOON:068:1,2014-04-12T18:00:00Z,27.2970,-97.4049,4.053,1111122 
TCOON,ioos:station:TCOON:068:1,2014-04-12T19:00:00Z,27.2970,-97.4049,4.035,1111122 
TCOON,ioos:station:TCOON:068:1,2014-04-12T20:00:00Z,27.2970,-97.4049,4.021,1111122 
TCOON,ioos:station:TCOON:068:1,2014-04-12T21:00:00Z,27.2970,-97.4049,4.007,1111122 
TCOON,ioos:station:TCOON:068:1,2014-04-12T22:00:00Z,27.2970,-97.4049,4.001,1111122 
TCOON,ioos:station:TCOON:068:1,2014-04-12T23:00:00Z,27.2970,-97.4049,4.001,1111122 
TCOON,ioos:station:TCOON:068:1,2014-04-13T00:00:00Z,27.2970,-97.4049,4.019,1111122 
TCOON,ioos:station:TCOON:068:1,2014-04-13T01:00:00Z,27.2970,-97.4049,4.041,1111122 